Location: Unspecified
(0.0000°N, 0.0000°E)
Time: 15:02:29
(UTC+00:00)

Vanguard 1 Rocket - Pass Details

Date: 13 February 2023
Orbit: 652 x 4223 km, 34.3° (Epoch: 30 March)

Event Time Altitude Azimuth Distance (km) Brightness Sun altitude
Exits shadow 03:29:01 - 193° (SSW) 3,303 10.3 -39.9°
Reaches altitude 10° 03:29:24 10° 190° (S) 3,199 10.2 -39.8°
Maximum altitude 03:32:56 14° 161° (SSE) 2,514 9.9 -39.0°
Drops below altitude 10° 03:35:47 10° 131° (SE) 2,485 10.2 -38.3°
Sets 03:39:12 0° 103° (ESE) 3,134 11.1 -37.5°
